Wind_Speed
17 14 11 12 11 13 13 12 11 10 8 7 6 7 8 8 8 9 11 14 15 19
18 18 18 18 18 17 17 17 15 14 13 12 10 8 8 9 8 8 9 11 14 16
22 21 20 20 21 22 21 21 20 20 19 18 16 13 11 9 8 9 10 11 12 14
23 22 22 23 25 26 26 26 27 27 26 24 22 19 18 15 13 12 11 13 12 15
24 24 24 24 26 28 29 30 32 33 33 30 28 26 24 22 19 18 16 14 14 17
10 11 14 18 22 25 29 31 31 33 35 36 35 33 31 28 26 24 23 20 18 19
17 17 18 19 20 22 24 26 28 32 36 38 39 37 35 33 31 29 29 27 25 23
21 22 23 24 25 26 27 28 29 30 33 36 39 39 38 38 36 34 32 29 27 26
30 31 32 34 34 35 37 38 38 37 35 35 36 36 39 40 38 35 32 30 28 28
28 27 27 28 29 29 30 31 32 33 34 35 38 38 38 40 39 35 32 30 29 29
26 27 26 25 25 26 26 26 25 27 29 31 33 34 36 34 35 33 32 33 30 29
23 23 24 22 23 24 22 22 24 25 28 27 26 30 30 29 31 29 28 28 28 30
25 24 23 24 25 24 22 24 23 24 25 27 28 28 34 36 30 28 28 32 33 33
23 23 25 26 25 25 24 21 22 25 26 26 26 28 29 29 30 25 25 22 24 24
Wind_Direction
208 213 217 209 217 225 232 244 244 247 254 265 269 288 297 296 300 302 294 293 291 283
223 219 220 220 221 228 230 231 234 241 245 244 247 263 275 292 304 305 300 293 293 289
242 238 239 232 231 232 240 238 239 241 240 240 238 240 240 253 265 283 296 297 288 279
262 258 257 252 249 247 249 248 246 248 244 243 241 241 237 238 243 250 266 285 285 286
278 277 272 264 261 260 262 260 253 251 246 244 244 243 239 240 241 243 246 258 271 280
338 318 298 288 282 280 280 278 274 266 260 253 248 244 242 241 242 240 239 241 248 265
324 319 313 308 303 298 294 291 287 278 268 258 255 254 249 245 242 242 242 243 247 252
316 314 312 307 302 299 297 294 292 287 282 274 261 255 252 249 244 242 243 246 252 257
312 310 306 303 300 297 293 289 286 283 281 277 269 261 258 254 247 245 242 247 259 271
299 293 290 288 287 283 282 282 278 276 276 273 274 275 268 260 248 241 244 253 262 269
290 287 286 284 280 281 282 283 283 278 274 273 273 273 273 263 244 248 257 262 267 265
289 287 286 281 282 282 280 280 279 278 276 275 276 273 268 257 255 259 265 270 274 271
293 288 287 288 286 283 279 280 278 280 278 277 276 271 267 270 269 270 272 274 270 264
290 289 288 286 284 282 280 280 280 279 278 275 269 271 268 268 268 261 261 255 266 267
Height
751 750 750 752 752 754 755 757 757 758 759 759 758 758 755 753 753 752 752 751 751 750
746 746 745 746 747 748 750 752 752 753 754 754 753 752 751 750 748 747 747 747 747 747
740 741 742 742 742 743 744 746 746 746 746 747 747 747 746 745 743 742 742 741 742 742
738 739 739 739 738 739 740 740 739 738 739 740 740 741 740 739 739 738 737 735 734 734
734 734 735 735 736 737 737 736 734 733 732 732 732 733 732 732 732 731 730 729 728 727
731 731 730 730 730 730 729 728 728 728 727 726 723 722 723 723 723 723 723 722 721 721
729 728 727 726 725 723 723 721 719 717 716 715 715 715 714 714 713 713 713 713 713 712
726 724 723 721 719 717 715 713 711 709 707 705 704 703 703 703 702 702 702 703 703 703
720 718 716 713 711 709 706 704 702 699 697 695 693 692 692 692 692 691 692 693 693 693
714 710 708 706 703 700 697 695 691 689 687 683 681 681 681 681 680 681 681 682 682 681
706 702 700 697 694 691 689 686 683 679 677 674 671 671 671 671 671 672 672 673 671 671
699 695 693 689 686 683 680 677 675 672 669 667 664 663 663 664 664 664 663 663 663 662
691 688 684 681 678 675 673 670 667 664 663 661 658 656 656 657 657 655 655 654 652 651
685 682 679 675 672 669 666 664 661 658 656 653 651 648 649 649 649 649 648 645 643 641